Regional Weather Roundup
Issued by NWS

Home | Current Version | Previous Version | Text Only | Print | Product List | Glossary Off
Versions: 1 2 3 4 5 6 7 8 9 10 11 12 13 14 15 16 17 18 19 20 21 22 23 24 25 26 27 28 29 30 31 32 33 34 35 36 37 38 39 40 41 42 43 44 45 46 47 48 49 50

000
ASUS43 KTOP 271059
RWRKS

WEATHER ROUNDUP FOR KANSAS
NATIONAL WEATHER SERVICE GOODLAND KS
600 AM CDT SUN MAY 27 2018

NOTE:  "FAIR" INDICATES FEW OR NO CLOUDS BELOW 12,000 FEET WITH NO
SIGNIFICANT WEATHER AND/OR OBSTRUCTIONS TO VISIBILITY.

KSZ001>006-013>018-027>032-041>047-271200-
NORTHWEST KANSAS

CITY           SKY/WX    TMP DP  RH WIND       PRES   REMARKS
GOODLAND       CLOUDY    68  60  75 S20       29.87R
HAYS           MOCLDY    65  63  93 S3        29.87R
HILL CITY      PTCLDY    68  65  90 S8        29.86R
RUSSELL        PTCLDY    65  65 100 S6        29.86R
$$

KSZ061>065-074>080-084>089-271200-
SOUTHWEST KANSAS

CITY           SKY/WX    TMP DP  RH WIND       PRES   REMARKS
DODGE CITY     MOCLDY    68  65  90 S13       29.88R
GARDEN CITY    MOCLDY    65  62  90 S7        29.89R
GREAT BEND     PTCLDY    67  65  93 S8        29.87R
LIBERAL        CLOUDY    68  64  87 SE7       29.89S
$$

KSZ066>073-081>083-090>101-271200-
SOUTHEAST KANSAS

CITY           SKY/WX    TMP DP  RH WIND       PRES   REMARKS
CHANUTE        CLEAR     68  66  93 SE5       29.87R
COFFEYVILLE    CLEAR     68  67  96 S5        29.86R
HUTCHINSON     CLEAR     67  64  90 S5        29.87R
MEDICINE LODGE   N/A     68  66  93 SE5       29.87R
NEWTON         PTCLDY    67  63  87 S6        29.89R
PARSONS        CLEAR     67  66  97 CALM      29.88R
WICHITA INTL   PTCLDY    67  64  90 S3        29.87R
WICHITA JABRA  PTCLDY    68  65  90 S5        29.87R
WINFIELD       CLEAR     69  65  86 CALM      29.88R
$$

KSZ007>012-019>026-033>040-048>060-102>105-271200-
NORTHEAST KANSAS

CITY           SKY/WX    TMP DP  RH WIND       PRES   REMARKS
CONCORDIA      CLOUDY    71  64  78 SW6       29.85R
EMPORIA        CLEAR     64  63  96 S3        29.86R
LAWRENCE       CLEAR     67  65  93 CALM      29.85R
MANHATTAN      CLEAR     65  63  93 CALM      29.85R
OLATHE IND     PTCLDY    69  67  93 S3        29.87R
OLATHE EXE     PTCLDY    71  66  84 SW5       29.86R
SALINA         PTCLDY    68  65  90 S3        29.86R
TOPEKA BILLARD CLEAR     69  68  96 CALM      29.85R
TOPEKA FORBES  CLEAR     68  66  93 CALM      29.86R
$$



USA.gov is the U.S. government's official web portal to all federal, state and local government web resources and services.